Regional Weather Roundup
Issued by NWS State College, PA

Home | Current Version | Previous Version | Graphics & Text | Print | Product List | Glossary Off
Versions: 1 2 3 4 5 6 7 8 9 10 11 12 13 14 15 16 17 18 19 20 21 22 23 24 25 26 27 28 29 30 31 32 33 34 35 36 37 38 39 40 41 42 43 44 45 46 47 48 49 50

000
ASUS41 KCTP 290303
RWRCTP

REGIONAL WEATHER ROUNDUP
NATIONAL WEATHER SERVICE STATE COLLEGE PA
1100 PM EDT TUE MAR 28 2017

Note: "fair" indicates few or no clouds below 12,000 feet with no
significant weather and/or obstructions to visibility.

* = STATION THAT DOES NOT REPORT PRECIPITATION /E.G. RAIN...SNOW...ETC/
    THUNDER OR FOG.

PAZ002>004-007>009-013>016-020>023-029>032-290400-
WESTERN PENNSYLVANIA

CITY           SKY/WX    TMP DP  RH WIND       PRES   REMARKS
ERIE           CLOUDY    42  39  89 CALM      30.13S
MEADVILLE      CLOUDY    42  40  92 N6        30.11R FOG
FRANKLIN*      CLOUDY    43  37  81 N5        30.11S
NEW CASTLE     CLOUDY    44  41  89 NW7       30.13R
BEAVER COUNTY  NOT AVBL
BUTLER*        CLOUDY    45  39  81 NW7       30.11R
PITTSBURGH INT CLOUDY    47  43  86 N9        30.10R
PITTSBURGH     CLOUDY    48  41  76 N10       30.08R
INDIANA*       CLOUDY    50  46  87 NW7       30.08S
LATROBE        MOCLDY    50  46  87 NW9       30.08R
WASHINGTON CO* CLOUDY    46  41  81 N8        30.11S
$$

PAZ004>006-010>012-017>019-024>028-033>037-041-042-045-046-049>053-290400-
CENTRAL PENNSYLVANIA

CITY           SKY/WX    TMP DP  RH WIND       PRES   REMARKS
BRADFORD       CLOUDY    41  40  96 N7        30.06R FOG
DUBOIS         NOT AVBL
CLEARFIELD       N/A    N/A N/A N/A MISG      30.04R
JOHNSTOWN      CLOUDY    49  47  93 NW9       30.03R
ALTOONA        CLOUDY    56  50  80 NW8       30.02R
STATE COLLEGE  CLOUDY    52  48  86 N8        30.01R
WILLIAMSPORT   CLOUDY    52  45  77 N12G18    30.01R
SELINSGROVE    CLOUDY    53  48  83 N9        30.01R
FT INDIANTOWN  CLOUDY    56  56 100 N10       29.96R
CAPITAL CITY   CLOUDY    59  50  72 N7        29.96S
HARRISBURG     CLOUDY    55  54  96 NW6       29.96R
YORK           CLOUDY    54  54 100 CALM      29.95R
$$

PAZ038>040-043-044-047-048-054-055-060>062-067>071-290400-
EASTERN PENNSYLVANIA

CITY           SKY/WX    TMP DP  RH WIND       PRES   REMARKS
SCRANTON       CLOUDY    48  46  93 N14       29.99R
MOUNT POCONO   CLOUDY    45  45 100 NW15G23   29.92S
ALLENTOWN      CLOUDY    48  46  93 SW5       29.94S
QUAKERTOWN*    CLOUDY    46  46 100 CALM      29.94S
READING        CLOUDY    50  50 100 NW5       29.94R
LANCASTER      CLOUDY    51  51 100 W3        29.95R FOG
COATESVILLE    CLOUDY    50  50 100 N5        29.95R
POTTSTOWN      CLOUDY    47  47 100 CALM      29.95S FOG
BLUE BELL      CLOUDY    45  45 100 CALM      29.93S
DOYLESTOWN     CLOUDY    45  45 100 CALM      29.92S
WILLOW GROVE   NOT AVBL
NORTH PHILA    CLOUDY    49  46  90 N6        29.96R
PHILADELPHIA   CLOUDY    49  46  90 N8        29.94R
$$



USA.gov is the U.S. government's official web portal to all federal, state and local government web resources and services.